Weather History for Taos, NM

Change the Weather History Date:

Wednesday, March 26, 2014

  Actual Average Record
Temperature  
Mean Temperature 44 °F -  
Max Temperature 55 °F 56 °F 71 °F (2004)
Min Temperature 33 °F 23 °F 12 °F (2002)
Degree Days  
Heating Degree Days 21    
Moisture  
Dew Point 27 °F    
Average Humidity 54    
Maximum Humidity 87    
Minimum Humidity 22    
Precipitation  
Precipitation 0.00 in - - ()
Sea Level Pressure  
Sea Level Pressure 29.82 in    
Wind  
Wind Speed 12 mph (West)    
Max Wind Speed 37 mph    
Max Gust Speed 48 mph    
Visibility 10 miles    
Events      
Averages and records for this station are not official NWS values.
T = Trace of Precipitation, MM = Missing Value Source: NWS Daily Summary

Daily Weather History Graph

Daily Weather History Graph

Search for Another Location

Airport:

Trip Planner

Search our weather history database for the weather conditions in past years. The results will help you decide how hot, cold, wet, or windy it might be!

Date:

Astronomy

Mar. 26, 2014 Rise Set
Actual Time 6:57 AM MDT 7:19 PM MDT
Civil Twilight 6:31 AM MDT 7:45 PM MDT
Nautical Twilight 6:01 AM MDT 8:15 PM MDT
Astronomical Twilight 5:30 AM MDT 8:46 PM MDT
Moon 4:00 AM MDT (3/26) 3:07 PM MDT (3/26)
Length of Visible Light 13h 13m
Length of Day
12h 22m
Waning Crescent, 21% of the Moon is Illuminated
Mar 26
Waning Crescent
Mar 30
New
Apr 7
First Quarter
Apr 15
Full
Apr 22
Last Quarter

Hourly Weather History & Observations

Time (MDT) Temp. Windchill Dew Point Humidity Pressure Visibility Wind Dir Wind Speed Gust Speed Precip Events Conditions
12:15 AM 44.6 °F 38.4 °F 19.4 °F 37% 30.00 in 10.0 mi SW 12.7 mph - N/A   Mostly Cloudy
12:35 AM 46.4 °F 41.1 °F 21.2 °F 37% 29.99 in 10.0 mi SW 11.5 mph - N/A   Overcast
12:55 AM 46.4 °F 39.5 °F 21.2 °F 37% 29.99 in 10.0 mi SW 17.3 mph 20.7 mph N/A   Overcast
1:15 AM 46.4 °F 40.4 °F 24.8 °F 43% 29.99 in 10.0 mi WSW 13.8 mph - N/A   Overcast
1:35 AM 44.6 °F 37.8 °F 24.8 °F 46% 29.99 in 10.0 mi SW 15.0 mph - N/A   Overcast
1:55 AM 44.6 °F 37.8 °F 26.6 °F 49% 29.98 in 10.0 mi SW 15.0 mph - N/A   Overcast
2:15 AM 44.6 °F 39.2 °F 26.6 °F 49% 29.98 in 10.0 mi WSW 10.4 mph - N/A   Overcast
2:35 AM 44.6 °F 38.1 °F 28.4 °F 53% 29.97 in 10.0 mi West 13.8 mph - N/A   Overcast
2:55 AM 39.2 °F 32.0 °F 32.0 °F 75% 29.96 in 10.0 mi WNW 11.5 mph - N/A   Overcast
3:15 AM 39.2 °F 35.0 °F 33.8 °F 81% 29.95 in 10.0 mi NW 5.8 mph - N/A   Overcast
3:35 AM 39.2 °F 34.2 °F 33.8 °F 81% 29.94 in 10.0 mi NW 6.9 mph - N/A   Overcast
3:55 AM 37.4 °F 33.8 °F 33.8 °F 87% 29.93 in 10.0 mi WNW 4.6 mph - N/A   Overcast
4:15 AM 37.4 °F 33.8 °F 33.8 °F 87% 29.92 in 10.0 mi NW 4.6 mph - N/A   Overcast
4:35 AM 37.4 °F 34.9 °F 33.8 °F 87% 29.91 in 10.0 mi NNW 3.5 mph - N/A   Overcast
4:55 AM 37.4 °F 34.9 °F 33.8 °F 87% 29.91 in 10.0 mi North 3.5 mph - N/A   Overcast
5:15 AM 37.4 °F 34.9 °F 33.8 °F 87% 29.91 in 10.0 mi NNE 3.5 mph - N/A   Overcast
5:35 AM 37.4 °F 33.8 °F 33.8 °F 87% 29.91 in 10.0 mi North 4.6 mph - N/A   Overcast
5:55 AM 35.6 °F 31.7 °F 30.2 °F 81% 29.91 in 10.0 mi NNE 4.6 mph - N/A   Mostly Cloudy
6:15 AM 35.6 °F 31.7 °F 30.2 °F 81% 29.90 in 10.0 mi NNE 4.6 mph - N/A   Scattered Clouds
6:35 AM 33.8 °F 29.6 °F 28.4 °F 81% 29.91 in 10.0 mi North 4.6 mph - N/A   Partly Cloudy
6:55 AM 33.8 °F - 30.2 °F 87% 29.91 in 10.0 mi Calm Calm - N/A   Mostly Cloudy
7:15 AM 35.6 °F - 32.0 °F 87% 29.91 in 10.0 mi Calm Calm - N/A   Overcast
7:35 AM 35.6 °F - 30.2 °F 81% 29.92 in 10.0 mi Calm Calm - N/A   Overcast
7:55 AM 37.4 °F - 32.0 °F 81% 29.91 in 10.0 mi Calm Calm - N/A   Mostly Cloudy
8:15 AM 39.2 °F - 33.8 °F 81% 29.91 in 10.0 mi Calm Calm - N/A   Mostly Cloudy
8:35 AM 39.2 °F - 33.8 °F 81% 29.91 in 10.0 mi Calm Calm - N/A   Overcast
8:55 AM 39.2 °F - 33.8 °F 81% 29.92 in 10.0 mi Calm Calm - N/A   Overcast
9:15 AM 41.0 °F - 32.0 °F 70% 29.91 in 10.0 mi Calm Calm - N/A   Overcast
9:35 AM 42.8 °F - 32.0 °F 66% 29.90 in 10.0 mi Calm Calm - N/A   Mostly Cloudy
9:55 AM 44.6 °F 40.2 °F 33.8 °F 66% 29.90 in 10.0 mi WSW 8.1 mph - N/A   Mostly Cloudy
10:15 AM 46.4 °F 40.4 °F 30.2 °F 53% 29.90 in 10.0 mi WSW 13.8 mph 17.3 mph N/A   Overcast
10:35 AM 46.4 °F 41.9 °F 30.2 °F 53% 29.90 in 10.0 mi WNW 9.2 mph - N/A   Mostly Cloudy
10:55 AM 48.2 °F - 30.2 °F 50% 29.89 in 10.0 mi WNW 12.7 mph 21.9 mph N/A   Mostly Cloudy
11:15 AM 48.2 °F - 28.4 °F 46% 29.88 in 10.0 mi West 8.1 mph 18.4 mph N/A   Mostly Cloudy
11:35 AM 50.0 °F - 28.4 °F 43% 29.87 in 10.0 mi WSW 12.7 mph 18.4 mph N/A   Mostly Cloudy
11:55 AM 48.2 °F - 28.4 °F 46% 29.86 in 10.0 mi SW 12.7 mph - N/A   Overcast
12:15 PM 50.0 °F - 28.4 °F 43% 29.84 in 10.0 mi WSW 10.4 mph - N/A   Scattered Clouds
12:35 PM 51.8 °F - 26.6 °F 38% 29.83 in 10.0 mi WSW 9.2 mph 21.9 mph N/A   Mostly Cloudy
12:55 PM 51.8 °F - 24.8 °F 35% 29.81 in 10.0 mi WNW 10.4 mph - N/A   Overcast
1:15 PM 51.8 °F - 28.4 °F 41% 29.79 in 10.0 mi West 12.7 mph 16.1 mph N/A   Overcast
1:35 PM 55.4 °F - 24.8 °F 31% 29.78 in 10.0 mi WNW 26.5 mph 34.5 mph N/A   Overcast
1:55 PM 51.8 °F - 28.4 °F 41% 29.78 in 10.0 mi West 18.4 mph 25.3 mph N/A   Mostly Cloudy
2:15 PM 55.4 °F - 24.8 °F 31% 29.76 in 10.0 mi West 21.9 mph 26.5 mph N/A   Scattered Clouds
2:35 PM 55.4 °F - 24.8 °F 31% 29.75 in 10.0 mi West 16.1 mph 26.5 mph N/A   Mostly Cloudy
2:55 PM 53.6 °F - 24.8 °F 33% 29.73 in 10.0 mi West 13.8 mph 18.4 mph N/A   Scattered Clouds
3:15 PM 55.4 °F - 23.0 °F 29% 29.71 in 10.0 mi SW 17.3 mph 25.3 mph N/A   Partly Cloudy
3:35 PM 53.6 °F - 21.2 °F 28% 29.72 in 10.0 mi West 24.2 mph 32.2 mph N/A   Mostly Cloudy
3:55 PM 53.6 °F - 21.2 °F 28% 29.72 in 10.0 mi West 26.5 mph 33.4 mph N/A   Scattered Clouds
4:15 PM 53.6 °F - 24.8 °F 33% 29.71 in 10.0 mi WSW 23.0 mph 31.1 mph N/A   Partly Cloudy
4:35 PM 53.6 °F - 21.2 °F 28% 29.71 in 10.0 mi SW 21.9 mph 34.5 mph N/A   Scattered Clouds
4:55 PM 51.8 °F - 23.0 °F 33% 29.71 in 10.0 mi WSW 27.6 mph 32.2 mph N/A   Overcast
5:15 PM 51.8 °F - 24.8 °F 35% 29.70 in 10.0 mi SW 21.9 mph 26.5 mph N/A   Overcast
5:35 PM 50.0 °F - 24.8 °F 37% 29.69 in 10.0 mi SW 15.0 mph - N/A   Overcast
5:55 PM 48.2 °F - 24.8 °F 40% 29.68 in 10.0 mi SSW 15.0 mph - N/A   Overcast
6:15 PM 48.2 °F - 24.8 °F 40% 29.65 in 10.0 mi South 11.5 mph - N/A   Overcast
6:35 PM 48.2 °F - 24.8 °F 40% 29.64 in 10.0 mi SSE 4.6 mph - N/A   Overcast
6:55 PM 48.2 °F - 23.0 °F 37% 29.62 in 10.0 mi South 3.5 mph - N/A   Overcast
7:15 PM 48.2 °F - 23.0 °F 37% 29.62 in 10.0 mi South 5.8 mph - N/A   Overcast
7:35 PM 48.2 °F - 21.2 °F 34% 29.63 in 10.0 mi WSW 8.1 mph - N/A   Overcast
7:55 PM 50.0 °F - 14.0 °F 24% 29.63 in 10.0 mi West 21.9 mph 38.0 mph N/A   Mostly Cloudy
8:15 PM 50.0 °F - 12.2 °F 22% 29.63 in 10.0 mi West 24.2 mph 34.5 mph N/A   Partly Cloudy
8:35 PM 50.0 °F - 12.2 °F 22% 29.63 in 10.0 mi West 23.0 mph 31.1 mph N/A   Clear
8:55 PM 48.2 °F - 14.0 °F 25% 29.63 in 10.0 mi WSW 24.2 mph 31.1 mph N/A   Clear
9:15 PM 48.2 °F - 15.8 °F 27% 29.65 in 9.0 mi WSW 26.5 mph 47.2 mph N/A   Mostly Cloudy
9:35 PM 44.6 °F 35.1 °F 21.2 °F 39% 29.68 in 10.0 mi WNW 27.6 mph 39.1 mph N/A   Overcast
9:55 PM 42.8 °F 31.3 °F 23.0 °F 46% 29.71 in 7.0 mi WNW 36.8 mph 48.3 mph N/A   Overcast
10:15 PM 37.4 °F 24.2 °F 28.4 °F 70% 29.71 in 10.0 mi WNW 34.5 mph 46.0 mph N/A   Mostly Cloudy
10:35 PM 35.6 °F 21.7 °F 28.4 °F 75% 29.71 in 10.0 mi West 34.5 mph 46.0 mph N/A   Overcast
10:55 PM 37.4 °F 26.4 °F 28.4 °F 70% 29.72 in 10.0 mi West 23.0 mph 27.6 mph N/A   Overcast
11:15 PM 35.6 °F 25.9 °F 28.4 °F 75% 29.74 in 10.0 mi West 16.1 mph 21.9 mph N/A   Mostly Cloudy
11:35 PM 33.8 °F 21.9 °F 30.2 °F 87% 29.75 in 5.0 mi West 21.9 mph 28.8 mph N/A   Mostly Cloudy
11:55 PM 33.8 °F 24.3 °F 28.4 °F 81% 29.75 in 7.0 mi West 13.8 mph 24.2 mph N/A   Overcast